User: anonymous   Login
Location: *
(18.5200°S, 46.4500°E)
Time: 19:34:01
(UTC+00:00)
Language:

Atlas Centaur 2 - Orbit

View from above orbital plane
View from above orbital plane
View from above satellite
View from above satellite

Ground track
Ground track

The orbit data is extracted from the following two-line orbital elements,

1   694U 63047A   19265.57605712  .00000275  00000-0  24203-4 0  9994
2   694  30.3566 291.1659 0586216  12.3496 349.0816 14.02512925798949
Epoch (UTC): 22 September 2019 13:49:31
Eccentricity: 0.0586216
inclination: 30.3566°
perigee height: 459 km
apogee height: 1311 km
right ascension of ascending node: 291.1659°
argument of perigee: 12.3496°
revolutions per day: 14.02512925
mean anomaly at epoch: 349.0816°
orbit number at epoch: 79894

The dashed part of the orbit path shows where the satellite is in the earth's shadow,  

DLR